Lid_Strength_Index
6 6 7 6 7 6 7 7 6 6 6 5 5 5 4 3 2 3 3 3 3 3 3 3 2 2 3 3 3 4 4 5 7 5 4 4 4 5 4 4 4 3 3
7 7 7 7 8 8 8 8 7 7 7 7 6 5 4 4 4 4 4 4 4 4 3 4 4 4 4 4 5 5 5 5 6 7 6 6 6 5 5 5 5 5 4
8 8 8 8 9 9 9 8 8 8 7 7 6 6 5 5 5 4 4 4 4 4 4 4 4 4 5 5 5 5 5 5 5 7 8 6 7 6 6 5 5 5 5
9 9 9 9 9 9 8 8 7 7 7 7 7 7 6 6 6 6 5 4 4 4 4 4 4 4 5 5 6 6 6 7 7 8 8 8 7 6 6 7 7 6 6
10 10 10 9 9 9 9 8 8 8 8 8 8 7 7 7 6 6 5 4 4 5 4 4 4 4 4 5 5 6 6 7 7 7 7 7 7 7 7 7 8 7 6
10 10 10 10 10 10 9 9 9 9 9 9 8 8 8 8 7 7 6 6 6 6 5 5 5 5 5 6 6 5 5 5 6 6 6 7 6 6 6 6 6 8 9
11 10 10 10 10 10 10 10 10 10 10 9 9 9 9 8 8 8 7 6 6 6 6 6 6 6 6 6 5 5 5 5 5 5 6 6 6 6 6 7 6 7 7
12 11 11 11 11 11 11 10 10 10 10 9 8 7 8 8 8 8 7 6 6 6 6 7 7 6 6 6 5 5 6 6 6 5 6 6 6 6 6 6 6 6 6
12 12 11 11 11 11 11 11 10 10 9 8 8 7 7 7 8 8 7 7 7 8 8 6 6 6 6 7 6 7 7 7 6 6 7 7 8 9 7 6 8 8 8
11 11 11 11 11 11 11 10 9 9 9 9 8 7 7 7 8 8 8 8 9 8 7 6 7 7 8 9 8 8 9 8 7 7 6 7 8 7 8 7 7 8 8
11 11 11 12 11 10 10 10 10 10 9 9 8 7 7 7 7 8 9 9 8 8 7 7 6 8 9 10 10 9 9 8 8 7 7 7 7 7 7 7 7 8 8
11 11 11 11 10 10 10 10 10 10 11 10 10 9 8 8 8 9 9 9 8 9 9 8 7 9 10 10 10 10 11 10 9 9 9 8 8 7 6 6 6 6 5
11 11 11 11 11 10 11 11 11 11 11 11 11 12 11 10 10 9 9 10 10 9 8 8 10 10 10 8 8 9 9 5 5 7 8 8 7 6 5 5 5 5 4
11 11 11 12 11 12 12 12 12 12 12 12 13 13 12 11 11 10 10 9 8 7 6 7 7 8 9 8 8 7 6 5 5 6 7 6 5 5 5 4 4 5 6
11 11 12 12 12 13 13 12 12 12 12 12 12 12 13 13 12 12 11 10 8 8 8 7 8 9 10 10 9 9 7 6 4 4 4 5 5 4 4 3 3 4 4
12 12 12 12 13 13 13 13 12 11 11 11 12 12 12 12 12 11 11 11 10 11 8 10 10 11 12 12 11 11 8 7 2 2 3 3 3 3 3 4 3 3 4
12 12 12 13 14 14 14 14 15 12 11 11 12 12 12 12 12 12 12 12 11 11 10 11 12 12 13 13 13 12 11 8 4 2 2 2 2 2 3 3 3 4 5
12 12 13 13 14 14 14 14 14 13 14 13 12 13 13 12 12 12 12 11 11 11 10 11 13 14 14 14 13 13 12 10 8 5 2 2 2 3 3 3 3 4 5
13 12 13 13 13 14 14 14 14 13 14 14 14 13 13 12 13 13 13 13 13 12 12 12 12 14 14 15 14 14 13 12 10 7 3 2 2 2 4 4 6 9 8
14 14 14 15 15 14 15 15 15 15 14 14 15 15 14 14 14 15 14 14 14 13 13 13 13 15 15 15 15 15 14 13 12 9 5 3 3 4 5 6 6 7 8
14 14 16 16 16 16 15 16 16 16 16 16 15 15 15 15 15 15 15 15 14 14 13 13 13 14 15 16 16 16 15 14 13 12 9 3 4 5 5 6 6 7 7
13 14 16 16 16 17 17 16 16 17 17 17 17 16 15 15 16 16 15 16 15 14 14 13 13 13 14 15 16 17 17 16 15 13 11 4 3 4 6 6 6 7 7
14 15 16 16 16 16 17 17 17 17 17 17 17 17 17 16 16 16 16 16 16 15 15 15 14 13 13 14 15 15 17 17 16 14 11 7 4 4 5 6 7 7 8
15 15 16 16 16 17 17 18 17 17 17 17 17 18 18 17 17 17 16 16 15 16 15 15 15 15 14 14 14 14 14 16 15 14 10 9 7 5 5 6 6 7 8
15 16 16 16 17 17 17 17 17 17 18 18 17 17 18 18 17 17 16 16 16 16 16 16 16 15 15 14 15 15 14 14 14 14 10 9 8 7 5 5 6 6 6
14 15 16 16 17 17 17 17 17 18 18 18 17 17 17 17 18 17 16 16 16 16 16 16 16 16 16 16 15 15 15 14 14 13 10 10 10 9 8 5 4 6 6